[[{"header":{"parameterUnit":"m.s-1","parameterCategory":1,"la1":30.2992,"la2":30.254,"lo1":-89.0895,"lo2":-89.0443,"dy":0.0025,"dx":0.0025,"nx":19,"ny":19,"refTime":"2026-04-11T09:00:00:Z","depth":0,"parameterNumber":2,"parameterNumberName":"U-component_of_WINDS"},"data":[0,0,0,-3.6247,-3.6249,-3.6356,-3.6357,-3.6489,-3.649,0,0,0,0,0,0,0,0,0,0,0,-3.6213,-3.6214,-3.6246,-3.6249,-3.6356,-3.6357,-3.6489,-3.649,0,0,0,0,0,0,0,0,0,0,0,-3.6213,-3.6214,-3.6215,-3.6249,-3.6356,-3.6357,-3.6489,-3.6409,0,0,0,0,0,0,0,0,0,0,-3.6305,-3.6274,-3.6214,-3.6215,-3.625,-3.6356,-3.6357,-3.6405,-3.6414,-3.6439,0,-3.6462,0,-3.6478,-3.6499,-3.6499,0,0,0,-3.625,-3.6266,-3.6297,-3.6215,-3.6251,-3.6356,-3.6308,-3.641,-3.642,-3.645,-3.6464,-3.6469,-3.648,-3.65,-3.65,-3.6643,-3.6643,0,0,-3.6244,-3.6232,-3.629,-3.6303,-3.6288,-3.6305,-3.6311,-3.6416,-3.6429,-3.6464,-3.6472,-3.6483,-3.6501,-3.6502,-3.6642,-3.6643,0,0,0,-3.6226,-3.6227,-3.6255,-3.6298,-3.6317,-3.6308,-3.6316,-3.6425,-3.6435,-3.6473,-3.6484,-3.6501,-3.6503,-3.6641,-3.6642,-3.666,0,0,0,-3.6223,-3.6217,-3.6253,-3.6246,-3.6315,-3.6373,-3.6322,-3.6428,-3.644,-3.6483,-3.6501,-3.6504,-3.6641,-3.6642,-3.6658,-3.667,0,0,0,-3.6207,-3.6215,-3.623,-3.6245,-3.6291,-3.6371,-3.6388,-3.6431,-3.6447,-3.6499,-3.6505,-3.664,-3.6642,-3.6656,-3.6667,-3.6702,0,0,0,-3.6186,-3.6245,-3.623,-3.6301,-3.629,-3.6383,-3.6387,-3.6457,-3.6504,-3.6502,-3.6641,-3.6642,-3.6656,-3.6665,-3.67,-3.6728,-3.6739,0,0,-3.6254,-3.6253,-3.6296,-3.6286,-3.6377,-3.6367,-3.6461,-3.6516,-3.6533,-3.6605,-3.6608,-3.6659,-3.6667,-3.6702,-3.6808,-3.6817,0,0,0,-3.6313,-3.6343,-3.637,-3.6415,-3.646,-3.6497,-3.654,-3.656,-3.6622,-3.6568,-3.6683,-3.6688,-3.6708,-3.6722,-3.6729,-3.6747,-3.6649,-3.6649,-3.6648,-3.639,-3.6408,-3.6479,-3.6509,-3.6553,-3.6596,-3.6632,-3.6666,-3.6672,-3.6699,-3.6719,-3.6782,-3.6798,-3.6803,-3.6821,-3.6737,-3.6738,-3.6738,-3.6738,-3.649,-3.6534,-3.654,-3.6611,-3.6628,-3.6687,-3.6731,-3.6732,-3.6788,-3.6768,-3.6787,-3.6762,-3.6812,-3.6829,-3.6739,-3.6739,-3.6739,-3.6739,-3.6738,-3.6541,-3.6565,-3.6589,-3.6655,-3.6704,-3.6733,-3.6786,-3.6801,-3.6815,-3.6835,-3.6856,-3.6856,-3.6856,-3.6844,-3.6845,-3.6845,-3.6845,-3.6845,-3.6845,-3.6583,-3.661,-3.6653,-3.6705,-3.6735,-3.6776,-3.6819,-3.6849,-3.6885,-3.6891,-3.6892,-3.6892,-3.6815,-3.6793,-3.6849,-3.6848,-3.6848,-3.6847,-3.6847,-3.6673,-3.6655,-3.6722,-3.6753,-3.6813,-3.6859,-3.6878,-3.6936,-3.6963,-3.6988,-3.6986,-3.6927,-3.6926,-3.6921,-3.6903,-3.6983,-3.6983,-3.6983,-3.6983,-3.6714,-3.6716,-3.6787,-3.6834,-3.6882,-3.6905,-3.6978,-3.7012,-3.7044,-3.7061,-3.7052,-3.703,-3.7024,-3.7027,-3.7019,-3.7003,-3.7107,-3.7107,-3.7107,-3.677,-3.6777,-3.6837,-3.6868,-3.6916,-3.6956,-3.7025,-3.7077,-3.7109,-3.7112,-3.7074,-3.7068,-3.7034,-3.7023,-3.7022,-3.701,-3.698,0,0]},{"header":{"parameterUnit":"m.s-1","parameterCategory":1,"la1":30.2992,"la2":30.254,"lo1":-89.0895,"lo2":-89.0443,"dy":0.0025,"dx":0.0025,"nx":19,"ny":19,"refTime":"2026-04-11T09:00:00:Z","depth":0,"parameterNumber":3,"parameterNumberName":"V-component_of_WINDS"},"data":[0,0,0,5.6226,5.6229,5.6333,5.6333,5.6481,5.6482,0,0,0,0,0,0,0,0,0,0,0,5.6207,5.6209,5.6226,5.6229,5.6333,5.6334,5.648,5.6482,0,0,0,0,0,0,0,0,0,0,0,5.6207,5.6208,5.621,5.623,5.6333,5.6334,5.648,5.6396,0,0,0,0,0,0,0,0,0,0,5.6292,5.6286,5.6208,5.621,5.623,5.6333,5.6334,5.6391,5.6401,5.644,0,5.6482,0,5.6485,5.6493,5.6494,0,0,0,5.622,5.6279,5.6296,5.621,5.6231,5.6333,5.6284,5.6397,5.6407,5.6453,5.6483,5.6488,5.6487,5.6494,5.6495,5.6761,5.6762,0,0,5.6214,5.6232,5.6289,5.6304,5.6292,5.628,5.6287,5.6403,5.6436,5.6484,5.6492,5.6489,5.6495,5.6497,5.6759,5.6761,0,0,0,5.6204,5.6228,5.6243,5.6299,5.6316,5.6284,5.6291,5.643,5.6434,5.6493,5.6491,5.6496,5.6498,5.6757,5.676,5.6861,0,0,0,5.62,5.6222,5.6241,5.6252,5.6315,5.6376,5.6317,5.6426,5.6438,5.649,5.6496,5.65,5.6755,5.6759,5.6854,5.6905,0,0,0,5.6196,5.6221,5.6241,5.6253,5.6299,5.6373,5.6383,5.6428,5.6438,5.6494,5.65,5.6754,5.6758,5.6848,5.6895,5.698,0,0,0,5.6197,5.6329,5.6243,5.6389,5.6298,5.6436,5.6382,5.6483,5.6543,5.6497,5.6756,5.676,5.6846,5.6889,5.6973,5.7054,5.7089,0,0,5.6373,5.6351,5.6435,5.6361,5.6519,5.6419,5.659,5.6627,5.6615,5.6712,5.6718,5.6856,5.6894,5.6978,5.7284,5.7312,0,0,0,5.6496,5.6557,5.6595,5.6655,5.6688,5.6719,5.6728,5.6742,5.6824,5.667,5.691,5.6932,5.698,5.7017,5.7042,5.7081,5.6778,5.6778,5.6777,5.677,5.6749,5.6886,5.6878,5.6936,5.6944,5.6988,5.7007,5.6967,5.7024,5.7053,5.7241,5.7286,5.7304,5.7345,5.7094,5.7095,5.7095,5.7095,5.7024,5.7106,5.7052,5.7166,5.7142,5.7236,5.7248,5.7217,5.7299,5.7218,5.7259,5.7172,5.7336,5.7371,5.7103,5.7101,5.71,5.71,5.7099,5.72,5.7236,5.7251,5.7334,5.74,5.7385,5.7467,5.7442,5.7418,5.7459,5.7486,5.7484,5.7478,5.7474,5.7475,5.7475,5.7476,5.7476,5.7477,5.7376,5.7391,5.7464,5.751,5.7544,5.7586,5.7595,5.7626,5.7655,5.7629,5.7629,5.7584,5.7356,5.7299,5.7487,5.7485,5.7484,5.7483,5.7482,5.7641,5.7577,5.7691,5.7725,5.7776,5.7842,5.7809,5.7875,5.7898,5.7939,5.7884,5.7721,5.7695,5.7675,5.7628,5.7889,5.7889,5.7889,5.7889,5.7789,5.7774,5.7884,5.794,5.7992,5.7974,5.81,5.8107,5.8104,5.8116,5.8075,5.801,5.7991,5.7976,5.7951,5.7905,5.8232,5.8232,5.8232,5.7949,5.7938,5.8052,5.8051,5.8088,5.812,5.8237,5.8302,5.8285,5.8246,5.8125,5.811,5.8005,5.7972,5.793,5.789,5.7807,0,0]}]]